TimeEDT,TemperatureF,Dew PointF,Humidity,Sea Level PressureIn,VisibilityMPH,Wind Direction,Wind SpeedMPH,Gust SpeedMPH,PrecipitationIn,Events,Conditions,WindDirDegrees,DateUTC
12:56 AM,79.0,64.9,62,29.78,10.0,West,4.6,-,N/A,,Scattered Clouds,270,2013-06-26 04:56:00
1:56 AM,77.0,64.9,66,29.77,10.0,West,5.8,-,N/A,,Clear,260,2013-06-26 05:56:00
2:56 AM,75.9,66.0,71,29.75,10.0,West,5.8,-,N/A,,Clear,260,2013-06-26 06:56:00
3:56 AM,75.0,66.9,76,29.77,10.0,WNW,8.1,-,N/A,,Clear,290,2013-06-26 07:56:00
4:56 AM,75.9,66.0,71,29.77,10.0,WNW,9.2,-,N/A,,Clear,290,2013-06-26 08:56:00
5:56 AM,75.0,66.0,73,29.79,10.0,WNW,10.4,-,N/A,,Clear,290,2013-06-26 09:56:00
6:56 AM,75.0,66.0,73,29.81,10.0,West,4.6,-,N/A,,Clear,270,2013-06-26 10:56:00
7:56 AM,75.9,66.0,71,29.82,10.0,West,12.7,-,N/A,,Clear,280,2013-06-26 11:56:00
8:56 AM,78.1,66.0,66,29.82,10.0,WNW,9.2,-,N/A,,Clear,300,2013-06-26 12:56:00
9:56 AM,80.1,66.9,64,29.82,10.0,West,6.9,-,N/A,,Partly Cloudy,280,2013-06-26 13:56:00
10:56 AM,79.0,66.0,64,29.82,10.0,NW,5.8,-,N/A,,Clear,310,2013-06-26 14:56:00
11:56 AM,79.0,66.9,66,29.82,10.0,West,4.6,-,N/A,,Mostly Cloudy,270,2013-06-26 15:56:00
12:56 PM,78.1,68.0,71,29.83,10.0,NW,5.8,-,N/A,,Partly Cloudy,320,2013-06-26 16:56:00
1:56 PM,78.1,66.0,66,29.83,10.0,West,4.6,-,N/A,,Scattered Clouds,270,2013-06-26 17:56:00
2:56 PM,80.1,64.9,60,29.82,10.0,Variable,5.8,-,N/A,,Clear,0,2013-06-26 18:56:00
3:56 PM,82.0,66.9,60,29.80,10.0,West,4.6,-,N/A,,Clear,260,2013-06-26 19:56:00
4:56 PM,81.0,66.9,62,29.79,10.0,NW,4.6,-,N/A,,Clear,320,2013-06-26 20:56:00
5:56 PM,80.1,66.9,64,29.79,10.0,Calm,Calm,-,N/A,,Mostly Cloudy,0,2013-06-26 21:56:00
6:56 PM,81.0,69.1,67,29.79,10.0,Calm,Calm,-,N/A,,Scattered Clouds,0,2013-06-26 22:56:00
7:56 PM,79.0,69.1,72,29.80,10.0,Calm,Calm,-,N/A,,Mostly Cloudy,0,2013-06-26 23:56:00
8:56 PM,77.0,68.0,74,29.80,10.0,Calm,Calm,-,N/A,,Mostly Cloudy,0,2013-06-27 00:56:00
9:56 PM,73.0,69.1,87,29.81,10.0,Calm,Calm,-,N/A,,Scattered Clouds,0,2013-06-27 01:56:00
10:56 PM,72.0,68.0,87,29.82,10.0,Calm,Calm,-,N/A,,Scattered Clouds,0,2013-06-27 02:56:00
11:56 PM,71.1,66.9,87,29.83,10.0,Calm,Calm,-,N/A,,Partly Cloudy,0,2013-06-27 03:56:00